GFSCGP_850_spd_231.txt.gz
Wind_Speed
14 10 15 19 19 22 20 24 25 21 19 19 20 21 19 25 33 23 22 33 36 32 31 26 28 33 38 33 34 34 37 43 39 40 39 33 27 26 23 20 21 27 25 24
14 18 23 22 21 22 25 25 25 25 23 20 23 24 21 23 22 34 30 32 27 33 36 31 29 32 37 38 39 38 38 39 44 43 41 39 34 27 26 30 28 26 25 23
19 23 21 22 19 22 26 26 24 24 20 20 20 23 23 25 29 33 33 36 30 31 33 37 33 34 38 42 41 42 40 39 42 39 31 34 33 33 32 30 29 28 25 21
17 17 17 22 25 23 26 25 24 22 18 15 16 17 23 23 26 27 35 37 36 33 32 33 35 35 40 42 44 43 39 40 39 38 36 40 44 40 38 33 29 28 25 24
21 25 23 22 28 24 27 18 22 22 18 18 22 13 17 20 25 29 28 34 40 37 32 33 33 35 41 44 43 43 41 41 39 43 40 41 40 36 36 33 31 30 27 26
21 28 21 27 26 22 17 17 11 19 14 14 23 18 16 19 20 25 28 37 37 37 36 32 29 33 37 41 43 37 39 40 42 42 42 43 40 37 36 34 33 31 29 28
27 16 16 4 8 4 9 12 6 7 8 12 18 16 19 15 26 23 27 34 39 38 34 37 35 34 36 38 43 41 41 44 43 43 43 37 38 41 36 34 33 33 30 29
12 24 9 2 7 9 10 11 5 7 10 13 17 10 14 28 27 23 21 36 38 37 40 37 36 36 37 39 44 39 43 44 44 42 42 40 38 41 34 34 34 32 32 30
12 12 18 18 19 8 9 10 16 5 9 9 7 13 19 21 22 24 18 23 31 34 39 40 38 38 38 39 42 41 43 43 46 45 40 37 39 42 38 35 34 33 32 35
6 17 11 19 2 4 5 6 8 4 4 6 8 11 5 20 16 16 21 18 25 29 32 36 34 33 34 37 39 39 41 42 46 46 43 43 41 40 38 37 34 33 33 36
15 5 15 16 5 2 3 4 7 8 8 4 1 4 9 11 2 7 12 17 19 21 23 31 31 30 31 32 35 39 39 41 44 44 43 42 40 40 39 38 37 36 36 33
9 6 8 19 11 3 3 4 16 6 5 7 7 2 11 11 10 7 7 7 13 18 19 22 25 27 28 31 33 37 40 41 40 44 45 43 42 43 44 42 39 41 37 32
12 5 9 5 1 7 3 10 9 16 8 7 7 3 15 14 11 11 4 4 13 18 20 24 26 28 30 30 32 38 38 41 41 42 42 44 44 45 43 42 39 33 26 23
18 5 7 8 14 13 10 18 21 5 5 8 2 8 17 16 12 10 12 13 21 22 23 24 24 23 24 27 27 31 32 33 37 37 39 37 36 35 34 26 27 22 18 19
5 5 10 18 17 12 13 24 21 18 14 8 10 9 13 14 8 10 14 17 26 26 21 19 19 18 17 16 15 15 15 14 13 15 12 12 11 10 13 19 20 22 21 13
9 5 14 5 5 10 7 26 19 22 20 11 11 10 13 14 15 19 20 23 28 28 29 25 25 24 21 21 19 16 15 17 17 20 22 25 24 26 27 23 17 11 13 16
7 7 9 6 13 13 3 23 15 11 19 12 9 8 11 17 18 19 24 30 31 31 33 32 32 33 30 34 34 33 34 36 40 35 32 27 22 18 17 15 14 15 14 11
10 13 3 6 12 4 4 17 10 13 24 27 17 13 11 15 36 43 35 34 35 36 37 38 40 42 41 39 44 36 30 28 29 27 23 19 13 12 10 9 9 9 9 8
6 5 5 5 6 1 12 21 11 9 16 27 21 18 11 16 47 43 40 41 42 45 45 43 40 39 37 36 33 30 27 23 21 16 12 11 10 10 7 5 4 5 6 7
7 5 3 4 5 9 14 26 39 8 17 29 26 19 18 16 23 9 33 42 44 43 44 40 38 36 33 28 25 23 21 19 17 16 15 13 10 7 6 4 1 3 7 9
7 4 9 10 5 4 20 32 21 11 7 28 27 23 28 18 15 19 39 43 41 40 39 35 33 32 29 25 21 23 23 24 21 19 16 14 12 11 9 8 6 6 8 10
6 8 5 6 7 7 35 14 9 9 19 21 27 26 28 30 37 41 42 41 39 38 35 33 32 32 28 27 26 28 28 24 20 17 15 14 13 12 11 10 10 10 11 12
4 4 4 7 4 6 15 15 21 20 16 21 22 22 24 31 34 36 39 38 38 38 36 34 34 31 29 29 27 28 27 21 19 16 17 18 17 17 17 16 16 15 15 16
3 9 2 2 6 8 19 17 18 18 18 17 20 22 27 33 33 36 35 35 35 34 34 32 30 31 32 29 27 27 23 21 19 19 19 19 18 18 17 17 18 19 20 21
3 8 5 3 5 2 16 17 13 13 17 21 23 24 24 28 30 31 32 32 32 31 30 29 30 29 29 25 25 24 22 20 19 19 19 19 19 19 19 20 21 22 22 23
3 3 3 3 5 3 6 10 10 14 17 19 20 23 24 25 28 28 31 29 29 29 27 27 28 27 27 25 24 24 23 21 20 19 20 21 20 20 20 20 19 20 23 24

GFSCGP_850_spd_234.txt.gz
Wind_Speed
20 10 11 14 17 20 16 20 20 20 19 18 16 15 14 14 22 22 28 34 26 29 27 27 33 30 32 36 37 38 38 41 42 41 36 36 35 30 26 25 26 24 27 26
13 16 17 20 21 21 21 22 22 19 20 17 17 19 16 18 19 23 23 25 34 29 32 31 30 34 33 35 34 38 40 38 42 42 39 38 36 31 29 29 29 27 28 27
15 21 19 22 24 21 21 20 22 22 18 16 16 19 18 16 25 30 32 28 29 35 31 31 35 37 33 37 37 39 39 39 43 40 39 37 36 33 34 34 31 33 29 28
14 12 14 17 21 18 24 19 24 21 18 13 13 15 16 14 19 20 27 30 28 32 34 26 36 35 36 36 38 39 39 37 38 42 41 44 45 43 40 38 34 32 29 28
13 20 22 23 24 21 22 17 20 19 14 14 19 10 14 15 19 21 22 32 34 32 32 36 27 46 41 35 38 40 43 40 42 38 43 42 43 45 43 40 37 34 31 29
21 30 20 19 20 20 21 16 13 14 8 12 22 16 10 16 20 18 18 35 37 36 37 38 30 37 37 36 32 38 39 44 44 39 42 44 42 43 42 42 40 35 32 32
24 9 4 5 10 10 4 3 3 4 6 11 11 12 17 13 21 23 21 35 41 42 40 37 31 23 32 37 35 37 39 44 44 39 36 41 41 40 39 41 39 37 36 35
9 20 7 4 10 6 11 7 2 3 3 5 12 9 14 27 25 27 25 28 40 43 42 41 35 26 32 36 36 38 42 43 43 40 40 46 46 41 39 37 37 37 35 33
8 9 15 11 15 4 0 3 8 7 5 5 6 13 13 13 23 23 18 22 37 41 36 37 37 36 29 38 38 34 40 41 39 39 43 46 46 42 42 39 35 33 33 33
5 12 9 19 1 2 4 9 0 2 4 4 6 8 4 10 14 11 13 14 25 36 36 38 35 35 35 37 38 33 38 38 40 42 45 48 45 41 40 37 36 34 34 35
12 5 13 13 7 11 3 2 4 6 3 3 7 3 7 13 12 9 8 17 14 33 35 35 36 32 33 33 32 27 33 35 36 42 45 45 43 41 41 39 38 36 35 37
7 4 6 20 12 2 4 10 6 4 3 3 4 3 10 16 15 14 13 22 21 14 18 30 32 28 27 26 23 25 29 30 35 39 41 41 43 42 43 39 38 37 37 38
9 3 7 8 1 1 9 20 18 16 5 2 5 3 17 18 14 18 14 21 21 20 24 26 28 26 25 25 22 22 24 28 35 36 41 43 45 44 43 41 40 39 39 39
18 3 6 7 13 10 9 20 23 17 4 6 5 10 17 18 12 13 19 21 25 27 26 26 25 23 19 17 18 19 22 24 30 35 37 38 37 33 34 33 31 27 22 22
6 4 8 14 18 9 17 20 20 21 17 7 9 11 17 16 12 14 21 23 32 34 35 29 26 22 20 17 15 13 10 7 5 4 4 3 2 3 3 6 7 13 16 16
4 4 12 5 4 11 11 23 15 23 22 9 10 14 16 19 25 27 27 30 34 36 37 38 35 32 32 31 28 26 25 25 22 26 26 25 27 27 28 23 23 21 17 11
5 6 7 5 8 8 6 23 13 17 22 11 12 9 13 21 22 28 32 34 36 37 38 41 42 43 44 46 45 47 45 40 40 36 33 30 27 26 20 16 11 9 13 12
9 11 3 5 9 5 6 18 10 11 26 26 18 15 12 18 34 46 41 37 42 39 42 47 49 48 46 42 38 37 36 35 30 28 28 16 16 15 9 12 10 7 7 5
4 3 4 4 6 1 21 23 14 6 17 26 20 20 20 14 45 44 42 45 47 44 48 47 45 43 41 39 32 30 30 28 27 26 22 19 17 14 14 13 11 9 8 6
11 4 0 4 5 11 19 28 38 5 18 30 27 21 20 20 22 9 33 46 47 44 43 42 38 36 37 36 32 29 32 32 32 28 25 22 20 17 16 15 13 11 10 11
8 5 10 10 6 5 20 35 17 10 6 26 26 22 26 15 17 17 37 45 43 42 40 37 36 37 36 32 30 31 31 33 27 22 19 20 20 19 18 16 16 15 14 12
6 6 5 5 7 7 34 13 8 9 14 17 24 24 25 26 35 42 42 42 41 40 39 37 38 39 37 34 32 35 36 29 25 23 24 25 24 22 19 17 17 16 15 14
4 3 3 6 3 3 14 16 16 14 14 20 20 21 22 29 35 37 39 39 39 39 38 37 37 37 36 34 33 33 31 26 23 22 24 23 21 19 19 18 19 18 19 20
1 6 2 2 3 6 16 14 15 17 17 17 19 22 27 32 33 36 35 36 35 35 36 35 36 37 36 33 31 30 26 24 22 22 23 22 21 21 21 22 24 24 26 28
1 6 3 4 4 3 14 14 11 12 14 17 19 22 25 27 30 30 31 32 32 31 31 32 33 32 32 29 28 27 25 22 22 23 23 24 24 25 25 26 26 26 27 28
3 1 1 2 1 3 3 6 7 10 14 15 17 21 23 24 26 27 29 28 28 29 28 28 29 29 28 26 26 26 25 24 23 24 25 26 25 26 26 27 27 28 28 27

GFSCGP_850_spd_237.txt.gz
Wind_Speed
10 5 10 12 16 18 15 19 21 20 20 15 17 16 12 10 18 15 21 22 25 30 28 23 22 33 34 38 38 41 41 49 41 40 39 36 37 37 33 31 28 27 31 31
6 17 19 16 17 21 20 21 21 22 15 11 17 19 15 13 16 22 24 23 20 25 35 27 25 28 29 39 39 39 40 42 44 46 41 38 39 38 33 32 29 31 30 30
11 16 18 18 18 17 17 17 18 20 15 18 16 18 16 11 15 24 29 32 27 28 28 31 26 22 30 44 39 37 40 39 41 38 36 37 35 38 35 33 34 35 34 33
11 10 10 17 20 19 22 21 20 19 14 15 11 10 16 14 16 18 25 27 29 30 30 30 27 30 31 42 40 38 37 41 43 45 43 41 40 42 41 40 36 36 35 34
17 18 22 21 18 14 11 12 16 18 17 12 15 5 6 13 17 17 15 27 31 30 33 23 35 21 35 38 35 35 36 37 40 39 41 42 44 41 41 38 38 38 37 35
18 28 14 8 11 13 15 12 18 12 9 10 12 11 13 13 23 21 21 30 32 30 32 32 30 32 25 37 35 37 38 35 38 37 37 40 42 44 43 42 41 40 39 35
14 5 1 3 10 9 7 5 2 2 4 5 5 10 20 12 20 22 21 27 33 35 32 34 30 30 25 34 37 37 38 37 37 38 39 40 43 43 42 42 42 42 42 40
6 10 4 3 9 8 11 3 1 4 2 5 5 6 8 16 21 29 36 32 31 34 37 41 37 31 25 31 40 36 37 38 39 38 39 41 39 42 44 43 41 42 40 40
6 7 8 11 9 3 3 4 5 3 4 3 4 5 10 9 9 21 17 22 23 32 37 39 42 31 28 33 35 36 35 33 37 38 39 41 39 45 44 44 39 39 36 40
4 9 8 15 2 3 4 7 3 0 3 4 3 8 3 17 14 14 16 16 22 27 32 34 39 34 28 28 33 35 30 28 31 33 36 38 39 42 42 42 42 38 34 34
8 5 10 10 5 7 9 9 5 6 3 2 4 2 10 16 16 9 5 6 13 25 29 30 35 34 29 25 25 25 27 23 24 28 34 36 37 41 43 44 46 38 33 33
3 4 6 17 7 7 8 12 8 4 2 1 2 2 17 21 13 10 15 20 19 16 22 21 24 25 25 23 22 20 20 21 23 25 28 32 35 41 46 48 45 40 31 35
6 3 7 10 4 4 11 18 22 9 5 4 3 5 17 20 9 18 17 26 30 35 29 25 22 21 19 19 20 21 21 19 23 25 28 32 32 34 36 38 37 34 34 33
17 3 5 5 10 10 15 20 25 15 5 4 8 9 22 25 19 20 27 33 36 38 41 40 35 31 26 22 19 15 12 8 8 13 14 14 12 7 4 4 6 4 4 6
5 3 5 13 12 3 21 20 25 21 17 8 12 13 19 22 18 22 30 36 43 43 46 44 42 37 33 30 26 23 20 15 12 8 12 14 14 12 11 12 15 17 16 15
2 4 6 2 11 7 19 24 18 19 19 10 13 14 17 24 28 36 32 39 41 42 41 44 46 46 45 42 40 38 38 36 33 34 34 31 30 27 26 25 24 21 18 14
4 4 4 4 8 1 7 22 12 18 22 10 11 9 14 21 25 32 34 40 40 38 38 45 45 53 49 49 47 47 43 40 40 38 32 30 26 23 22 21 17 16 15 11
7 7 1 4 4 7 5 17 9 7 25 25 17 16 10 16 32 45 43 41 44 45 49 48 48 49 45 43 39 37 36 35 33 31 27 22 22 22 18 14 15 14 12 11
5 4 4 3 4 1 14 20 12 7 14 24 20 20 22 12 30 44 41 44 44 45 46 45 43 41 41 43 39 37 38 37 35 33 29 26 24 23 21 19 18 17 15 14
6 4 5 4 5 9 13 23 32 10 14 31 27 21 23 21 17 8 30 42 45 44 44 43 43 41 40 40 39 36 37 36 34 29 27 26 24 23 22 21 21 21 20 19
7 5 7 7 6 4 14 33 19 9 4 25 23 21 23 12 13 15 32 43 43 43 42 39 39 41 40 38 37 40 38 39 33 29 27 27 27 27 25 23 21 21 19 17
5 5 4 4 6 6 29 11 8 5 8 14 17 18 21 20 26 34 39 41 41 42 42 41 41 41 38 36 35 37 38 32 27 26 27 27 26 25 23 22 23 22 21 20
4 3 2 4 3 3 6 7 7 5 7 12 12 16 17 25 29 32 38 38 39 39 39 38 39 38 36 34 34 35 33 27 26 25 27 26 24 23 23 22 23 23 22 23
2 4 2 2 4 4 6 6 7 7 8 9 13 15 19 26 28 33 34 35 36 36 36 35 35 36 36 34 33 33 28 26 24 25 26 25 24 24 24 25 26 27 29 29
2 3 1 2 3 5 4 6 6 8 10 13 16 20 23 26 29 30 32 32 33 33 33 33 33 33 33 30 29 28 25 23 24 26 26 27 26 27 27 28 29 28 28 27
3 4 3 3 6 3 3 5 6 8 11 13 16 19 22 24 27 28 31 30 30 30 29 29 30 29 29 27 28 27 26 25 25 27 28 28 28 28 26 26 25 25 24 24

GFSCGP_850_spd_240.txt.gz
Wind_Speed
7 5 12 12 14 17 15 19 21 19 17 12 18 18 18 14 18 18 23 17 19 16 17 28 25 19 29 34 38 42 43 41 41 39 39 38 36 35 34 33 32 29 31 32
4 11 17 12 15 16 17 18 19 14 14 10 15 17 16 14 13 20 26 25 20 24 21 15 29 23 22 23 31 44 44 43 41 41 39 39 38 36 34 35 32 31 32 35
9 16 18 13 11 12 13 16 19 18 14 9 8 22 18 20 20 23 29 32 24 24 25 24 21 32 25 22 30 36 43 43 39 39 39 38 36 34 34 36 36 35 32 33
9 7 9 18 16 14 14 11 14 17 13 9 8 9 14 8 15 16 23 30 25 24 25 24 19 26 29 27 28 34 36 45 44 44 44 42 43 40 38 38 40 35 33 32
8 22 18 15 9 12 9 11 12 13 13 11 14 8 12 9 13 17 19 31 30 24 26 25 20 20 29 28 25 32 36 37 44 43 46 46 46 41 38 37 40 37 35 36
16 21 2 1 15 14 15 13 16 14 7 7 12 10 12 12 21 11 16 28 29 21 23 25 23 20 25 30 30 30 39 41 38 41 44 39 40 36 39 37 40 40 39 39
9 6 3 5 11 7 1 5 4 4 1 5 3 9 15 10 10 18 18 25 30 27 26 25 26 27 20 25 33 23 34 41 37 38 40 43 41 39 41 40 40 42 41 41
6 8 6 8 4 6 8 2 2 4 3 3 4 6 5 5 11 20 26 28 26 24 27 28 28 24 17 25 31 31 32 35 37 35 35 38 39 38 38 38 41 42 43 43
5 6 3 11 4 8 6 10 15 7 4 4 3 5 7 14 19 17 10 19 22 22 19 21 28 28 22 22 20 28 37 34 33 30 31 33 34 36 37 36 37 41 44 41
3 7 4 10 6 2 4 10 7 4 4 4 2 3 9 25 27 16 7 9 18 22 21 24 25 28 24 15 20 24 33 30 23 25 26 30 26 29 34 37 38 39 45 43
6 4 7 7 5 10 8 9 5 5 5 3 3 1 14 24 25 10 11 8 8 19 15 16 21 21 19 15 17 23 25 23 21 20 22 26 30 30 31 34 37 39 43 41
3 3 5 10 5 2 8 14 6 3 5 4 3 3 20 28 20 12 13 17 23 24 20 23 23 23 19 15 13 14 15 14 12 14 20 22 24 26 28 30 33 36 32 30
7 3 5 8 2 11 7 23 19 3 2 10 5 6 21 27 21 20 21 29 30 36 39 35 34 31 22 21 18 14 12 10 10 10 12 15 15 13 13 12 13 13 12 11
14 3 3 3 4 7 13 22 22 13 4 7 9 14 24 27 24 22 27 37 40 44 43 44 46 41 35 32 27 23 19 16 12 6 6 7 9 9 10 12 12 13 10 10
4 3 5 8 3 7 20 16 23 21 16 8 12 14 21 22 19 20 30 41 47 47 48 44 46 45 41 38 34 32 30 27 25 24 22 25 24 23 23 22 21 21 20 20
3 3 3 2 7 5 16 19 17 18 19 10 12 14 18 27 25 39 37 41 43 43 43 45 48 48 49 46 43 41 40 40 37 37 36 32 30 28 27 25 25 23 22 21
4 3 3 3 3 1 6 20 10 13 18 10 10 10 15 17 24 34 36 40 40 43 45 49 50 51 49 46 43 45 41 38 39 38 34 31 28 28 26 24 23 23 22 20
5 6 1 3 5 8 3 15 6 7 21 23 16 15 14 13 28 43 46 40 42 45 47 50 48 46 46 44 41 38 37 37 36 35 32 29 26 26 24 23 24 23 21 20
7 2 3 3 3 3 3 13 8 7 11 22 19 19 26 14 24 44 41 40 40 43 46 48 46 44 43 43 40 38 39 37 36 35 32 28 26 25 23 23 22 23 21 21
7 5 5 4 6 7 5 20 26 8 11 28 26 22 21 20 14 9 29 37 41 43 43 44 43 42 40 39 36 38 39 38 39 34 33 30 28 27 27 25 24 23 22 22
7 5 4 5 5 3 6 28 11 7 3 23 22 21 22 12 12 14 28 37 40 43 43 42 41 44 43 39 38 40 38 39 33 30 29 28 28 27 26 24 23 22 21 20
4 5 3 3 5 5 25 11 8 2 4 11 15 17 18 20 24 28 33 37 39 41 41 40 41 40 38 36 35 37 38 32 28 27 26 27 27 26 24 24 24 24 24 24
3 2 2 3 2 3 7 4 4 3 4 8 7 10 12 17 22 26 31 34 36 37 38 37 37 37 36 34 33 35 32 26 25 25 27 27 25 26 26 25 25 25 25 25
3 1 2 2 1 2 2 2 2 3 4 5 8 11 15 20 23 28 30 32 34 34 34 33 32 34 34 32 31 31 28 25 23 25 27 26 26 26 26 26 26 26 27 27
3 3 4 2 4 2 1 3 3 5 7 10 12 14 17 22 25 27 29 30 31 30 30 29 29 30 30 28 28 26 24 23 24 26 27 28 27 27 27 27 27 26 25 24
7 5 3 4 9 4 6 9 8 9 10 10 12 16 18 20 23 25 27 27 26 26 26 26 27 26 27 27 28 27 25 23 23 25 26 26 25 24 24 23 22 22 22 22

GFSCGP_850_spd_246.txt.gz
Wind_Speed
3 2 6 10 8 14 15 17 23 22 17 16 18 21 19 20 23 19 27 28 27 25 23 22 19 15 18 17 19 22 29 25 27 29 35 40 43 40 36 34 29 27 27 28
3 5 7 6 7 13 13 18 22 21 12 11 17 22 19 17 15 23 26 28 28 22 22 23 21 15 13 21 16 16 25 20 32 38 33 36 41 39 35 34 30 27 27 27
4 8 10 10 11 10 13 12 18 19 17 10 17 16 15 17 22 29 30 33 27 26 25 26 23 17 10 19 23 9 23 31 37 39 32 36 35 36 38 37 34 30 27 28
6 3 11 13 5 7 11 4 10 13 11 5 5 7 12 6 11 10 20 26 28 29 28 27 24 17 14 14 16 12 9 18 29 35 48 44 43 43 39 36 32 31 32 30
6 11 13 4 10 14 9 14 16 19 14 12 8 5 6 6 9 15 14 17 15 23 27 27 24 17 11 13 11 14 7 8 15 29 35 38 35 37 32 31 32 35 31 31
12 6 1 3 16 13 14 11 20 9 6 4 4 8 3 5 12 17 16 24 22 18 22 24 20 15 10 8 15 10 8 5 6 17 15 23 43 38 34 31 33 32 29 29
8 5 4 3 11 8 17 14 4 5 2 4 5 5 5 17 22 19 22 27 26 20 18 18 19 15 11 8 11 12 12 7 7 4 7 17 38 35 29 28 29 28 29 28
5 8 7 8 2 9 14 8 4 5 4 7 7 3 4 23 30 32 31 35 23 16 14 12 14 14 10 4 8 14 13 10 2 3 4 16 23 26 21 24 25 24 24 25
5 5 3 8 5 9 9 7 16 5 10 4 3 8 2 30 34 36 38 3 10 9 12 9 7 4 4 4 4 12 9 5 2 4 5 10 13 20 23 23 21 27 25 23
3 6 3 6 6 4 9 11 5 3 4 4 5 6 10 29 33 34 18 13 17 10 11 10 9 7 6 8 13 14 16 10 5 4 2 15 7 10 10 12 10 8 6 7
3 2 8 4 6 13 10 8 4 5 3 3 4 3 11 20 26 27 18 26 30 27 27 29 26 24 21 17 18 20 16 10 10 12 14 14 12 15 13 12 16 13 7 8
3 3 5 5 4 8 9 14 5 3 4 3 3 2 19 21 23 26 25 28 33 33 35 38 35 35 32 31 30 31 31 28 28 25 17 13 16 17 21 25 23 21 20 18
7 3 5 9 2 8 8 22 18 2 4 12 4 5 16 22 23 38 29 29 30 35 41 42 44 42 40 39 40 40 40 38 35 31 26 28 30 28 28 28 27 26 26 26
3 2 2 2 6 3 18 22 21 13 3 5 7 11 23 25 25 28 34 28 30 37 39 40 46 45 43 43 43 44 43 39 38 33 34 36 34 32 32 32 32 32 32 31
3 1 3 6 3 0 13 15 20 18 12 6 8 11 17 18 18 23 25 25 36 38 41 39 41 44 43 45 47 46 45 41 38 40 39 40 38 35 35 35 34 33 32 32
4 3 4 4 4 4 9 21 18 17 14 6 10 9 17 23 25 28 30 31 36 37 36 36 42 44 45 45 50 47 45 43 42 43 42 38 36 35 35 34 34 32 33 31
5 5 5 5 7 5 5 19 11 11 15 6 9 8 15 13 19 28 31 35 34 34 34 38 44 44 45 48 48 47 44 40 41 40 38 36 35 35 35 33 31 32 32 29
6 5 2 3 7 8 5 11 3 6 19 19 11 12 11 5 20 35 38 36 34 33 39 42 41 43 44 44 44 43 41 40 40 39 38 35 34 35 33 31 31 31 30 30
7 1 3 4 2 1 3 8 7 6 10 17 15 17 22 5 15 36 35 31 30 33 35 38 40 42 43 43 40 41 41 41 40 39 36 34 32 32 31 32 31 31 28 28
2 4 4 4 5 4 4 5 10 2 10 20 23 21 22 17 13 6 25 29 33 36 38 40 41 41 39 40 38 39 39 37 38 35 34 32 30 31 31 30 30 30 28 28
5 4 4 3 1 5 3 19 2 5 1 11 14 15 15 6 6 9 18 24 28 32 33 35 36 38 37 35 35 39 37 39 35 32 30 30 30 30 29 28 27 27 26 25
1 2 1 2 4 4 17 3 6 3 3 3 6 8 10 12 12 16 20 25 28 31 32 32 33 34 34 33 33 37 39 34 31 29 29 29 29 29 27 26 25 24 24 25
1 4 3 4 4 2 5 8 6 5 3 1 2 3 6 10 13 16 20 23 26 27 29 29 31 31 31 31 31 35 34 29 28 29 30 29 26 25 25 25 25 25 25 27
2 5 3 3 4 3 3 4 5 4 4 4 4 5 8 13 14 17 19 21 22 24 25 26 27 30 32 31 30 31 28 25 24 26 27 26 26 26 26 26 26 25 27 28
3 9 5 2 3 4 10 12 9 9 9 8 9 9 10 12 14 15 17 18 20 21 22 22 25 27 28 27 27 26 23 21 22 25 26 26 25 25 25 27 28 29 29 27
12 7 5 5 20 8 15 19 16 15 14 12 12 13 12 12 13 14 16 17 18 18 19 20 22 22 24 23 24 24 21 19 21 24 25 25 26 26 25 24 23 23 23 23